| time (UTC) | temp C | wind direction | speed KPH | gust KPH | rain 1hr cm | rain 24hr cm | rain mn cm | humidity % | barometer mb |
| 20260508100508 | 13 | 155 | 14.5 | 22.5 | 0.00 | 0.00 | 0.00 | 38 | 1024.1 |
| 20260508100023 | 13 | 150 | 11.3 | 19.3 | 0.00 | 0.00 | 0.00 | 38 | 1024.0 |
| 20260508095511 | 13 | 160 | 12.9 | 22.5 | 0.00 | 0.00 | 0.00 | 38 | 1024.0 |
| 20260508095016 | 13 | 92 | 12.9 | 22.5 | 0.00 | 0.00 | 0.00 | 36 | 1024.0 |
| 20260508094522 | 13 | 119 | 11.3 | 22.5 | 0.00 | 0.00 | 0.00 | 38 | 1024.0 |
| 20260508094009 | 13 | 136 | 11.3 | 22.5 | 0.00 | 0.00 | 0.00 | 39 | 1024.0 |
| 20260508093507 | 12 | 140 | 14.5 | 20.9 | 0.00 | 0.00 | 0.00 | 39 | 1024.0 |
| 20260508093023 | 12 | 164 | 16.1 | 22.5 | 0.00 | 0.00 | 0.00 | 37 | 1024.0 |
| 20260508092509 | 12 | 171 | 14.5 | 22.5 | 0.00 | 0.00 | 0.00 | 37 | 1024.1 |
| 20260508092011 | 12 | 151 | 11.3 | 22.5 | 0.00 | 0.00 | 0.00 | 38 | 1024.0 |
| 20260508091513 | 12 | 128 | 9.7 | 22.5 | 0.00 | 0.00 | 0.00 | 47 | 1024.0 |
| 20260508091007 | 12 | 148 | 16.1 | 22.5 | 0.00 | 0.00 | 0.00 | 50 | 1024.0 |
| 20260508090511 | 12 | 146 | 14.5 | 24.1 | 0.00 | 0.00 | 0.00 | 52 | 1024.0 |
| 20260508090011 | 11 | 169 | 12.9 | 24.1 | 0.00 | 0.00 | 0.00 | 56 | 1024.0 |
| 20260508085514 | 12 | 137 | 14.5 | 22.5 | 0.00 | 0.00 | 0.00 | 57 | 1024.1 |
| 20260508085010 | 12 | 117 | 11.3 | 20.9 | 0.00 | 0.00 | 0.00 | 60 | 1024.0 |
| 20260508084528 | 11 | 120 | 12.9 | 24.1 | 0.00 | 0.00 | 0.00 | 58 | 1024.0 |
| 20260508084008 | 11 | 74 | 12.9 | 24.1 | 0.00 | 0.00 | 0.00 | 58 | 1023.9 |
| 20260508083515 | 11 | 169 | 11.3 | 19.3 | 0.00 | 0.00 | 0.00 | 57 | 1023.9 |
| 20260508083110 | 12 | 127 | 11.3 | 19.3 | 0.00 | 0.00 | 0.00 | 58 | 1023.8 |
| 20260508082507 | 11 | 138 | 12.9 | 19.3 | 0.00 | 0.00 | 0.00 | 57 | 1023.7 |
| 20260508082011 | 11 | 170 | 9.7 | 20.9 | 0.00 | 0.00 | 0.00 | 57 | 1023.7 |
| 20260508081526 | 11 | 85 | 11.3 | 20.9 | 0.00 | 0.00 | 0.00 | 61 | 1023.7 |
| 20260508081007 | 11 | 123 | 12.9 | 19.3 | 0.00 | 0.00 | 0.00 | 60 | 1023.7 |
| 20260508080506 | 11 | 144 | 14.5 | 19.3 | 0.00 | 0.00 | 0.00 | 60 | 1023.7 |
| 20260508080021 | 11 | 103 | 14.5 | 20.9 | 0.00 | 0.00 | 0.00 | 60 | 1023.8 |
| 20260508075512 | 11 | 145 | 6.4 | 27.4 | 0.00 | 0.00 | 0.00 | 60 | 1023.7 |
| 20260508075003 | 11 | 161 | 11.3 | 27.4 | 0.00 | 0.00 | 0.00 | 60 | 1023.7 |
| 20260508074519 | 11 | 137 | 11.3 | 20.9 | 0.00 | 0.00 | 0.00 | 58 | 1023.7 |
| 20260508074010 | 11 | 152 | 14.5 | 19.3 | 0.00 | 0.00 | 0.00 | 58 | 1023.6 |
| 20260508073511 | 10 | 120 | 8.0 | 24.1 | 0.00 | 0.00 | 0.00 | 61 | 1023.5 |
| 20260508073012 | 10 | 139 | 16.1 | 24.1 | 0.00 | 0.00 | 0.00 | 60 | 1023.4 |
| 20260508072511 | 10 | 112 | 14.5 | 22.5 | 0.00 | 0.00 | 0.00 | 60 | 1023.4 |
| 20260508072009 | 10 | 149 | 11.3 | 20.9 | 0.00 | 0.00 | 0.00 | 62 | 1023.4 |
| 20260508071514 | 10 | 148 | 14.5 | 22.5 | 0.00 | 0.00 | 0.00 | 61 | 1023.4 |
| 20260508071012 | 10 | 171 | 12.9 | 22.5 | 0.00 | 0.00 | 0.00 | 62 | 1023.3 |
| 20260508070508 | 10 | 136 | 12.9 | 19.3 | 0.00 | 0.00 | 0.00 | 65 | 1023.2 |
| 20260508070027 | 10 | 113 | 12.9 | 19.3 | 0.00 | 0.00 | 0.00 | 66 | 1023.1 |
| 20260508065507 | 10 | 171 | 3.2 | 12.9 | 0.00 | 0.00 | 0.00 | 69 | 1023.0 |
| 20260508065010 | 10 | 136 | 4.8 | 16.1 | 0.00 | 0.00 | 0.00 | 69 | 1023.1 |
| 20260508064542 | 10 | 124 | 8.0 | 16.1 | 0.00 | 0.00 | 0.00 | 73 | 1022.9 |
| 20260508064010 | 10 | 122 | 8.0 | 16.1 | 0.00 | 0.00 | 0.00 | 76 | 1022.9 |
| 20260508063507 | 10 | 138 | 6.4 | 16.1 | 0.00 | 0.00 | 0.00 | 79 | 1022.9 |
| 20260508063022 | 10 | 121 | 8.0 | 12.9 | 0.00 | 0.00 | 0.00 | 78 | 1022.8 |
| 20260508062510 | 10 | 119 | 8.0 | 12.9 | 0.00 | 0.00 | 0.00 | 77 | 1022.7 |
| 20260508062010 | 10 | 111 | 6.4 | 12.9 | 0.00 | 0.00 | 0.00 | 77 | 1022.6 |
| 20260508061524 | 10 | 134 | 1.6 | 11.3 | 0.00 | 0.00 | 0.00 | 78 | 1022.5 |
| 20260508061011 | 10 | 117 | 6.4 | 11.3 | 0.00 | 0.00 | 0.00 | 80 | 1022.5 |
| 20260508060513 | 10 | 72 | 4.8 | 9.7 | 0.00 | 0.00 | 0.00 | 81 | 1022.4 |
| 20260508060022 | 10 | 73 | 3.2 | 6.4 | 0.00 | 0.00 | 0.00 | 81 | 1022.3 |
| 20260508055514 | 9 | 89 | 4.8 | 6.4 | 0.00 | 0.00 | 0.00 | 82 | 1022.3 |
| 20260508055008 | 9 | 93 | 3.2 | 6.4 | 0.00 | 0.00 | 0.00 | 82 | 1022.3 |
| 20260508054517 | 8 | 65 | 1.6 | 6.4 | 0.00 | 0.00 | 0.00 | 83 | 1022.2 |
| 20260508054010 | 8 | 59 | 3.2 | 6.4 | 0.00 | 0.00 | 0.00 | 82 | 1022.2 |
| 20260508053508 | 8 | 76 | 0.0 | 8.0 | 0.00 | 0.00 | 0.00 | 81 | 1022.2 |
| 20260508053028 | 8 | 79 | 4.8 | 8.0 | 0.00 | 0.00 | 0.00 | 81 | 1022.2 |
| 20260508052515 | 7 | 76 | 0.0 | 3.2 | 0.00 | 0.00 | 0.00 | 82 | 1022.3 |
| 20260508052012 | 7 | 261 | 0.0 | 0.0 | 0.00 | 0.00 | 0.00 | 84 | 1022.2 |
| 20260508051525 | 6 | 261 | 0.0 | 0.0 | 0.00 | 0.00 | 0.00 | 85 | 1022.2 |
| 20260508051008 | 6 | 261 | 0.0 | 0.0 | 0.00 | 0.00 | 0.00 | 86 | 1022.2 |
| 20260508050510 | 6 | 261 | 0.0 | 0.0 | 0.00 | 0.00 | 0.00 | 87 | 1022.1 |
| 20260508050029 | 5 | 261 | 0.0 | 0.0 | 0.00 | 0.00 | 0.00 | 88 | 1022.1 |
| 20260508045510 | 4 | 261 | 0.0 | 0.0 | 0.00 | 0.00 | 0.00 | 88 | 1022.1 |
| 20260508045011 | 3 | 261 | 0.0 | 0.0 | 0.00 | 0.00 | 0.00 | 90 | 1022.0 |
| 20260508044523 | 3 | 261 | 0.0 | 0.0 | 0.00 | 0.00 | 0.00 | 89 | 1022.0 |
| 20260508044011 | 3 | 261 | 0.0 | 0.0 | 0.00 | 0.00 | 0.00 | 88 | 1021.9 |
| 20260508043508 | 2 | 319 | 0.0 | 0.0 | 0.00 | 0.00 | 0.00 | 89 | 1021.9 |
| 20260508043025 | 2 | 319 | 0.0 | 0.0 | 0.00 | 0.00 | 0.00 | 88 | 1021.8 |
| 20260508042509 | 2 | 319 | 0.0 | 0.0 | 0.00 | 0.00 | 0.00 | 88 | 1021.8 |
| 20260508042008 | 2 | 319 | 0.0 | 0.0 | 0.00 | 0.00 | 0.00 | 89 | 1021.7 |
| 20260508041521 | 2 | 319 | 0.0 | 0.0 | 0.00 | 0.00 | 0.00 | 89 | 1021.7 |
| 20260508041010 | 2 | 319 | 0.0 | 0.0 | 0.00 | 0.00 | 0.00 | 87 | 1021.6 |
| 20260508040509 | 2 | 319 | 0.0 | 0.0 | 0.00 | 0.00 | 0.00 | 88 | 1021.6 |
| 20260508040018 | 2 | 319 | 0.0 | 0.0 | 0.00 | 0.00 | 0.00 | 89 | 1021.7 |
| 20260508035516 | 2 | 319 | 0.0 | 0.0 | 0.00 | 0.00 | 0.00 | 89 | 1021.7 |
| 20260508035014 | 1 | 319 | 0.0 | 0.0 | 0.00 | 0.00 | 0.00 | 88 | 1021.7 |
| 20260508034529 | 1 | 319 | 0.0 | 0.0 | 0.00 | 0.00 | 0.00 | 88 | 1021.6 |
| 20260508034010 | 1 | 319 | 0.0 | 0.0 | 0.00 | 0.00 | 0.00 | 88 | 1021.7 |
| 20260508033510 | 1 | 332 | 0.0 | 0.0 | 0.00 | 0.00 | 0.00 | 88 | 1021.6 |
| 20260508033024 | 1 | 332 | 0.0 | 0.0 | 0.00 | 0.00 | 0.00 | 88 | 1021.6 |
| 20260508032511 | 1 | 332 | 0.0 | 0.0 | 0.00 | 0.00 | 0.00 | 87 | 1021.6 |
| 20260508032011 | 1 | 332 | 0.0 | 0.0 | 0.00 | 0.00 | 0.00 | 86 | 1021.6 |
| 20260508031527 | 1 | 332 | 0.0 | 0.0 | 0.00 | 0.00 | 0.00 | 87 | 1021.5 |
| 20260508031012 | 1 | 332 | 0.0 | 0.0 | 0.00 | 0.00 | 0.00 | 87 | 1021.5 |
| 20260508030507 | 1 | 331 | 0.0 | 0.0 | 0.00 | 0.00 | 0.00 | 87 | 1021.5 |
| 20260508030024 | 1 | 332 | 0.0 | 0.0 | 0.00 | 0.00 | 0.00 | 87 | 1021.5 |
| 20260508025510 | 1 | 332 | 0.0 | 0.0 | 0.00 | 0.00 | 0.00 | 87 | 1021.4 |
| 20260508025008 | 1 | 332 | 0.0 | 0.0 | 0.00 | 0.00 | 0.00 | 87 | 1021.4 |
| 20260508024526 | 1 | 332 | 0.0 | 0.0 | 0.00 | 0.00 | 0.00 | 86 | 1021.3 |
| 20260508024011 | 1 | 332 | 0.0 | 0.0 | 0.00 | 0.00 | 0.00 | 86 | 1021.3 |
| 20260508023510 | 1 | 332 | 0.0 | 0.0 | 0.00 | 0.00 | 0.00 | 86 | 1021.3 |
| 20260508023030 | 1 | 332 | 0.0 | 0.0 | 0.00 | 0.00 | 0.00 | 87 | 1021.2 |
| 20260508022509 | 1 | 332 | 0.0 | 0.0 | 0.00 | 0.00 | 0.00 | 86 | 1021.2 |
| 20260508022015 | 1 | 332 | 0.0 | 0.0 | 0.00 | 0.00 | 0.00 | 86 | 1021.2 |
| 20260508021528 | 1 | 332 | 0.0 | 0.0 | 0.00 | 0.00 | 0.00 | 86 | 1021.2 |
| 20260508021011 | 1 | 332 | 0.0 | 0.0 | 0.00 | 0.00 | 0.00 | 86 | 1021.2 |
| 20260508020509 | 1 | 332 | 0.0 | 0.0 | 0.00 | 0.00 | 0.00 | 87 | 1021.2 |
| 20260508020028 | 1 | 327 | 0.0 | 0.0 | 0.00 | 0.00 | 0.00 | 86 | 1021.2 |
| 20260508015507 | 1 | 300 | 0.0 | 0.0 | 0.00 | 0.00 | 0.00 | 86 | 1021.1 |
| 20260508015009 | 1 | 300 | 0.0 | 0.0 | 0.00 | 0.00 | 0.00 | 87 | 1021.0 |
| 20260508014533 | 1 | 300 | 0.0 | 0.0 | 0.00 | 0.00 | 0.00 | 86 | 1021.0 |
| 20260508014011 | 2 | 300 | 0.0 | 0.0 | 0.00 | 0.00 | 0.00 | 87 | 1020.9 |
| 20260508013507 | 2 | 300 | 0.0 | 0.0 | 0.00 | 0.00 | 0.00 | 86 | 1020.8 |
| 20260508013024 | 2 | 300 | 0.0 | 0.0 | 0.00 | 0.00 | 0.00 | 89 | 1020.8 |
| 20260508012515 | 1 | 300 | 0.0 | 0.0 | 0.00 | 0.00 | 0.00 | 87 | 1020.8 |
| 20260508012011 | 2 | 300 | 0.0 | 0.0 | 0.00 | 0.00 | 0.00 | 88 | 1020.8 |
| 20260508011533 | 1 | 300 | 0.0 | 0.0 | 0.00 | 0.00 | 0.00 | 88 | 1020.7 |
| 20260508011015 | 2 | 300 | 0.0 | 0.0 | 0.00 | 0.00 | 0.00 | 88 | 1020.8 |
| 20260508010507 | 1 | 300 | 0.0 | 0.0 | 0.00 | 0.00 | 0.00 | 87 | 1020.8 |
| 20260508010027 | 2 | 300 | 0.0 | 0.0 | 0.00 | 0.00 | 0.00 | 87 | 1020.8 |
| 20260508005508 | 2 | 300 | 0.0 | 0.0 | 0.00 | 0.00 | 0.00 | 87 | 1020.7 |
| 20260508005006 | 2 | 300 | 0.0 | 0.0 | 0.00 | 0.00 | 0.00 | 87 | 1020.7 |
| 20260508004517 | 2 | 300 | 0.0 | 0.0 | 0.00 | 0.00 | 0.00 | 87 | 1020.7 |
| 20260508004011 | 2 | 300 | 0.0 | 0.0 | 0.00 | 0.00 | 0.00 | 87 | 1020.7 |
| 20260508003502 | 2 | 300 | 0.0 | 0.0 | 0.00 | 0.00 | 0.00 | 86 | 1020.6 |
| 20260508003014 | 2 | 300 | 0.0 | 0.0 | 0.00 | 0.00 | 0.00 | 86 | 1020.6 |
| 20260508002509 | 2 | 300 | 0.0 | 0.0 | 0.00 | 0.00 | 0.00 | 86 | 1020.6 |
| 20260508002005 | 2 | 300 | 0.0 | 0.0 | 0.00 | 0.00 | 0.00 | 86 | 1020.6 |
| 20260508001513 | 2 | 300 | 0.0 | 0.0 | 0.00 | 0.00 | 0.00 | 86 | 1020.7 |
| 20260508001008 | 2 | 300 | 0.0 | 0.0 | 0.00 | 0.00 | 0.00 | 86 | 1020.6 |
| 20260508000518 | 2 | 300 | 0.0 | 0.0 | 0.00 | 0.00 | 0.00 | 86 | 1020.7 |
| 20260508000007 | 2 | 300 | 0.0 | 0.0 | 0.00 | 0.00 | 0.00 | 86 | 1020.7 |
| 20260507235508 | 2 | 300 | 0.0 | 0.0 | 0.00 | 0.00 | 0.00 | 87 | 1020.7 |
| 20260507235008 | 2 | 300 | 0.0 | 0.0 | 0.00 | 0.00 | 0.00 | 87 | 1020.6 |
| 20260507234503 | 2 | 300 | 0.0 | 0.0 | 0.00 | 0.00 | 0.00 | 85 | 1020.6 |
| 20260507234003 | 2 | 300 | 0.0 | 0.0 | 0.00 | 0.00 | 0.00 | 86 | 1020.6 |
| 20260507233507 | 2 | 313 | 0.0 | 0.0 | 0.00 | 0.00 | 0.00 | 86 | 1020.6 |
| 20260507233024 | 2 | 313 | 0.0 | 0.0 | 0.00 | 0.00 | 0.00 | 86 | 1020.6 |
| 20260507232505 | 2 | 313 | 0.0 | 0.0 | 0.00 | 0.00 | 0.00 | 85 | 1020.6 |
| 20260507232006 | 2 | 313 | 0.0 | 0.0 | 0.00 | 0.00 | 0.00 | 85 | 1020.6 |
| 20260507231519 | 2 | 313 | 0.0 | 1.6 | 0.00 | 0.00 | 0.00 | 85 | 1020.6 |
| 20260507231003 | 3 | 313 | 0.0 | 1.6 | 0.00 | 0.00 | 0.00 | 85 | 1020.6 |
| 20260507230504 | 2 | 313 | 1.6 | 3.2 | 0.00 | 0.00 | 0.00 | 85 | 1020.6 |
| 20260507230019 | 3 | 313 | 1.6 | 3.2 | 0.00 | 0.00 | 0.00 | 85 | 1020.7 |
| 20260507225508 | 3 | 313 | 0.0 | 1.6 | 0.00 | 0.00 | 0.00 | 85 | 1020.6 |
| 20260507225008 | 3 | 313 | 1.6 | 1.6 | 0.00 | 0.00 | 0.00 | 85 | 1020.6 |
| 20260507224516 | 3 | 313 | 1.6 | 1.6 | 0.00 | 0.00 | 0.00 | 85 | 1020.5 |
| 20260507224007 | 3 | 332 | 1.6 | 1.6 | 0.00 | 0.00 | 0.00 | 84 | 1020.5 |
| 20260507223508 | 3 | 332 | 0.0 | 0.0 | 0.00 | 0.00 | 0.00 | 84 | 1020.4 |
| 20260507223013 | 3 | 332 | 0.0 | 0.0 | 0.00 | 0.00 | 0.00 | 84 | 1020.4 |
| 20260507222508 | 3 | 332 | 0.0 | 0.0 | 0.00 | 0.00 | 0.00 | 85 | 1020.4 |
| 20260507222011 | 3 | 332 | 0.0 | 0.0 | 0.00 | 0.00 | 0.00 | 84 | 1020.3 |
| 20260507221508 | 3 | 332 | 0.0 | 0.0 | 0.00 | 0.00 | 0.00 | 83 | 1020.4 |
| 20260507221007 | 3 | 332 | 0.0 | 0.0 | 0.00 | 0.00 | 0.00 | 83 | 1020.3 |
| 20260507220510 | 3 | 332 | 0.0 | 0.0 | 0.00 | 0.00 | 0.00 | 85 | 1020.3 |
| 20260507220027 | 3 | 332 | 0.0 | 0.0 | 0.00 | 0.00 | 0.00 | 83 | 1020.3 |
| 20260507215511 | 3 | 332 | 0.0 | 0.0 | 0.00 | 0.00 | 0.00 | 83 | 1020.3 |
| 20260507215013 | 3 | 332 | 0.0 | 0.0 | 0.00 | 0.00 | 0.00 | 83 | 1020.2 |
| 20260507214524 | 3 | 332 | 0.0 | 0.0 | 0.00 | 0.00 | 0.00 | 83 | 1020.3 |
| 20260507214008 | 3 | 332 | 0.0 | 0.0 | 0.00 | 0.00 | 0.00 | 83 | 1020.2 |
| 20260507213515 | 4 | 332 | 0.0 | 0.0 | 0.00 | 0.00 | 0.00 | 83 | 1020.2 |
| 20260507213030 | 4 | 332 | 0.0 | 0.0 | 0.00 | 0.00 | 0.00 | 82 | 1020.2 |
| 20260507212511 | 4 | 332 | 0.0 | 0.0 | 0.00 | 0.00 | 0.00 | 81 | 1020.1 |
| 20260507212012 | 4 | 332 | 0.0 | 0.0 | 0.00 | 0.00 | 0.00 | 82 | 1020.1 |
| 20260507211521 | 4 | 332 | 0.0 | 0.0 | 0.00 | 0.00 | 0.00 | 81 | 1020.1 |
| 20260507211013 | 4 | 332 | 0.0 | 0.0 | 0.00 | 0.00 | 0.00 | 81 | 1020.1 |
| 20260507210507 | 4 | 332 | 0.0 | 0.0 | 0.00 | 0.00 | 0.00 | 82 | 1020.0 |
| 20260507210020 | 4 | 332 | 0.0 | 0.0 | 0.00 | 0.00 | 0.00 | 82 | 1020.0 |
| 20260507205507 | 4 | 332 | 0.0 | 3.2 | 0.00 | 0.00 | 0.00 | 82 | 1019.9 |
| 20260507205008 | 4 | 332 | 0.0 | 3.2 | 0.00 | 0.00 | 0.00 | 81 | 1019.8 |
| 20260507204512 | 5 | 332 | 1.6 | 1.6 | 0.00 | 0.00 | 0.00 | 80 | 1019.8 |
| 20260507204009 | 5 | 341 | 1.6 | 3.2 | 0.00 | 0.00 | 0.00 | 79 | 1019.7 |
| 20260507203515 | 5 | 352 | 0.0 | 3.2 | 0.00 | 0.00 | 0.00 | 78 | 1019.7 |
| 20260507203013 | 5 | 352 | 0.0 | 1.6 | 0.00 | 0.00 | 0.00 | 79 | 1019.7 |
| 20260507202507 | 5 | 352 | 1.6 | 1.6 | 0.00 | 0.00 | 0.00 | 79 | 1019.7 |
| 20260507202010 | 5 | 352 | 0.0 | 0.0 | 0.00 | 0.00 | 0.00 | 78 | 1019.6 |
| 20260507201528 | 5 | 352 | 0.0 | 0.0 | 0.00 | 0.00 | 0.00 | 78 | 1019.6 |
| 20260507201009 | 5 | 352 | 0.0 | 0.0 | 0.00 | 0.00 | 0.00 | 77 | 1019.6 |
| 20260507200507 | 5 | 352 | 0.0 | 0.0 | 0.00 | 0.00 | 0.00 | 76 | 1019.6 |
| 20260507200033 | 6 | 352 | 0.0 | 0.0 | 0.00 | 0.00 | 0.00 | 76 | 1019.6 |
| 20260507195504 | 6 | 352 | 0.0 | 0.0 | 0.00 | 0.00 | 0.00 | 76 | 1019.5 |
| 20260507195008 | 6 | 352 | 0.0 | 0.0 | 0.00 | 0.00 | 0.00 | 77 | 1019.5 |
| 20260507194520 | 6 | 352 | 0.0 | 1.6 | 0.00 | 0.00 | 0.00 | 76 | 1019.5 |
| 20260507194009 | 6 | 352 | 0.0 | 1.6 | 0.00 | 0.00 | 0.00 | 74 | 1019.3 |
| 20260507193505 | 6 | 352 | 0.0 | 1.6 | 0.00 | 0.00 | 0.00 | 74 | 1019.4 |
| 20260507193027 | 7 | 352 | 1.6 | 1.6 | 0.00 | 0.00 | 0.00 | 73 | 1019.3 |
| 20260507192509 | 7 | 5 | 0.0 | 0.0 | 0.00 | 0.00 | 0.00 | 71 | 1019.3 |
| 20260507192011 | 7 | 5 | 0.0 | 0.0 | 0.00 | 0.00 | 0.00 | 70 | 1019.3 |
| 20260507191520 | 8 | 5 | 0.0 | 0.0 | 0.00 | 0.00 | 0.00 | 70 | 1019.2 |
| 20260507191010 | 8 | 5 | 0.0 | 0.0 | 0.00 | 0.00 | 0.00 | 70 | 1019.2 |
| 20260507190512 | 8 | 5 | 0.0 | 0.0 | 0.00 | 0.00 | 0.00 | 69 | 1019.1 |
| 20260507190028 | 8 | 5 | 0.0 | 3.2 | 0.00 | 0.00 | 0.00 | 67 | 1019.1 |
| 20260507185508 | 9 | 5 | 0.0 | 3.2 | 0.00 | 0.00 | 0.00 | 68 | 1018.9 |
| 20260507185010 | 9 | 5 | 0.0 | 3.2 | 0.00 | 0.00 | 0.00 | 67 | 1018.9 |
| 20260507184536 | 9 | 5 | 0.0 | 4.8 | 0.00 | 0.00 | 0.00 | 65 | 1018.7 |
| 20260507184009 | 10 | 360 | 1.6 | 4.8 | 0.00 | 0.00 | 0.00 | 65 | 1018.8 |
| 20260507183509 | 10 | 360 | 3.2 | 4.8 | 0.00 | 0.00 | 0.00 | 64 | 1018.7 |
| 20260507183026 | 10 | 334 | 1.6 | 6.4 | 0.00 | 0.00 | 0.00 | 63 | 1018.8 |
| 20260507182505 | 10 | 12 | 3.2 | 6.4 | 0.00 | 0.00 | 0.00 | 62 | 1018.8 |
| 20260507182011 | 10 | 352 | 4.8 | 6.4 | 0.00 | 0.00 | 0.00 | 63 | 1018.6 |
| 20260507181524 | 10 | 344 | 1.6 | 8.0 | 0.00 | 0.00 | 0.00 | 62 | 1018.6 |
| 20260507181011 | 10 | 9 | 3.2 | 8.0 | 0.00 | 0.00 | 0.00 | 61 | 1018.6 |
| 20260507180511 | 11 | 13 | 3.2 | 8.0 | 0.00 | 0.00 | 0.00 | 59 | 1018.4 |
| 20260507180023 | 11 | 360 | 3.2 | 8.0 | 0.00 | 0.00 | 0.00 | 58 | 1018.4 |